Content
SEND FEEDBACK

Daily
Averages
Monthly
Summary
United States of America

BEDFORD PARK, ILLINOIS


Home > North America > United States > Illinois
Elevation: 623 feet     Latitude: 41 46N     Longitude: 087 45W

WEATHER
 
SELECT A DAY
Number of Records: 193,905;   Date Range: 1/1/95 - 12/19/14
 
SHARE

PRINT THIS DATA

[ ← Previous Day ]
WEATHER ALMANAC - APRIL 28, 2014
[ Next Day → ]
[ °C ]   °F
Weather ElementAverageHighLow
Temperature51.6 °F57 °F (3:51 pm)46.9 °F (7:40 am)
Dewpoint44.9 °F50 °F (5:47 pm)34 °F (2:51 am)
Humidity78.6 %92 % (11:19 pm)52 % (2:51 am)
Barometer29.65 in29.82 in (1:51 am)29.56 in (4:51 pm)
Wind Speed16.3 mph28.8 mph (9:30 am)
Wind Gust36.8 mph (9:30 am)
Weather ElementAverage
Visibility7.9 mi
Wind DirectionE (94.7 °)

Weather ElementTotal
Precipitation0.80 in
Heating Degree Days13.1 (Base 65)
Growing Degree Days2 (Base 50)
Averaged from 34 records on April 28, 2014
WEATHER CONDITIONS BREAKOUT
WIND DIRECTION BREAKOUT
WEATHER BY HOUR - APRIL 28, 2014
[ °C ]   °F
Local TimeTemperatureDewpointHumidityBarometerVisibilityWind DirectionWind SpeedGust SpeedPrecipitationEventsConditions
1:51 AM51.1 °F36.0 °F56 %29.82 in10.0 miEast (100°)15.0 mph23.0 mph0.00 inOvercast
2:51 AM51.1 °F34.0 °F52 %29.78 in10.0 miEast (90°)17.3 mph26.5 mphOvercast
3:51 AM51.1 °F35.1 °F54 %29.75 in10.0 miEast (80°)18.4 mph25.3 mphOvercast
4:51 AM51.1 °F36.0 °F56 %29.73 in10.0 miEast (90°)17.3 mph23.0 mph0.00 inOvercast
5:18 AM50.0 °F37.9 °F63 %29.72 in10.0 miEast (90°)17.3 mph24.2 mph0.00 inRainLight Rain
5:51 AM48.9 °F39.9 °F71 %29.73 in4.0 miEast (100°)17.3 mph0.01 inRainLight Rain
6:51 AM48.9 °F42.1 °F77 %29.74 in3.0 miESE (110°)13.8 mph0.08 inRainHeavy Rain
7:03 AM48.0 °F43.0 °F83 %29.75 in2.5 miESE (110°)13.8 mph0.08 inRainRain
7:40 AM46.9 °F44.1 °F90 %29.75 in3.0 miEast (100°)11.5 mph0.25 inRainRain
7:51 AM46.9 °F44.1 °F90 %29.75 in4.0 miEast (100°)13.8 mph0.28 inRainLight Rain
8:51 AM48.2 °F44.6 °F87 %29.70 in8.0 miEast (90°)20.7 mph29.9 mphRainLight Rain
9:30 AM48.0 °F44.1 °F86 %29.61 in10.0 miEast (80°)28.8 mph36.8 mph0.00 inMostly Cloudy
9:51 AM48.9 °F44.1 °F83 %29.62 in10.0 miEast (80°)25.3 mph34.5 mph0.01 inOvercast
10:06 AM50.0 °F43.0 °F77 %29.67 in10.0 miEast (90°)23.0 mph31.1 mphOvercast
10:51 AM50.0 °F43.0 °F77 %29.71 in10.0 miEast (90°)13.8 mphOvercast
11:51 AM52.0 °F45.0 °F77 %29.68 in10.0 miEast (100°)11.5 mph0.00 inOvercast
12:51 PM53.1 °F46.0 °F77 %29.66 in10.0 miEast (100°)18.4 mph26.5 mphOvercast
1:51 PM52.0 °F46.0 °F80 %29.66 in10.0 miEast (100°)19.6 mph27.6 mphOvercast
2:51 PM55.0 °F48.0 °F77 %29.65 in10.0 miESE (110°)21.9 mph27.6 mphOvercast
3:51 PM57.0 °F48.0 °F72 %29.59 in10.0 miESE (110°)18.4 mphOvercast
4:51 PM55.0 °F48.9 °F80 %29.56 in10.0 miEast (100°)19.6 mph0.00 inRainLight Rain
5:47 PM55.4 °F50.0 °F82 %29.56 in9.0 miEast (90°)16.1 mphOvercast
5:51 PM55.4 °F50.0 °F82 %29.56 in9.0 miEast (100°)17.3 mphOvercast
6:37 PM53.6 °F48.2 °F82 %29.57 in7.0 miEast (100°)16.1 mph24.2 mphOvercast
6:51 PM54.0 °F48.9 °F83 %29.57 in6.0 miESE (110°)19.6 mphHaze
7:46 PM53.6 °F48.2 °F82 %29.58 in7.0 miEast (100°)13.8 mphOvercast
7:51 PM53.1 °F48.0 °F83 %29.59 in7.0 miEast (100°)18.4 mph27.6 mphOvercast
8:51 PM52.0 °F46.9 °F83 %29.59 in8.0 miEast (100°)10.4 mph21.9 mphOvercast
9:51 PM53.6 °F48.2 °F82 %29.63 in8.0 miEast (80°)6.9 mphRainLight Rain
10:00 PM53.1 °F48.9 °F86 %29.62 in7.0 miENE (70°)6.9 mph0.01 inRain-ThunderstormLight Thunderstorms and Rain
10:15 PM52.0 °F48.9 °F89 %29.61 in6.0 miEast (80°)10.4 mph0.03 inRainLight Rain
10:51 PM52.0 °F48.9 °F89 %29.57 in7.0 miEast (80°)16.1 mph0.03 inOvercast
11:19 PM51.1 °F48.9 °F92 %29.56 in5.0 miEast (90°)15.0 mph0.01 inRainLight Rain
11:51 PM51.1 °F48.9 °F92 %29.56 in7.0 miEast (100°)11.5 mph0.01 inRainLight Rain
Hourly data recorded from KMDW, located miles away from Bedford Park, Illinois







STORIES FROM OUR PARTNERS